METEOR-M2 4

Last updated on Mon Nov 03 2025 00:02:25 GMT+0000 (Coordinated Universal Time)

1 59051U 24039A 25306.53895499 .00000060 00000+0 46594-4 0 9993 2 59051 98.6700 264.0912 0008115 103.2194 256.9890 14.22391578 87041
UTC large
Height (km)
Speed (km/s)
/
Latitude / Longitude
Inclination (degrees)
Orbital Period (minutes)
Azimuth
Elevation
Range (km)
Doppler Factor

Next 0 passes for location: London (51.5072 / 0.1276)

Sorry there are no passes over London.